Weather History for Romeoville, IL

Change the Weather History Date:

Friday, November 15, 2013

  Actual Average Record
Temperature  
Mean Temperature 42 °F 41 °F  
Max Temperature 48 °F 49 °F 69 °F (2001)
Min Temperature 36 °F 33 °F 17 °F (1995)
Degree Days  
Heating Degree Days 23 24  
Month to date heating degree days 366 311  
Since 1 July heating degree days 838 798  
Cooling Degree Days 0 0  
Month to date cooling degree days 0 0  
Year to date cooling degree days 950 862  
Moisture  
Dew Point 31 °F    
Average Humidity 66    
Maximum Humidity 79    
Minimum Humidity 48    
Precipitation  
Precipitation 0.00 in 0.11 in 0.18 in (2005)
Month to date precipitation 1.44 1.69  
Year to date precipitation 37.92 36.05  
Snow  
Snow 0.00 in 0.00 in 2.70 in (1997)
Month to date snowfall 0.4 0.1  
Since 1 July snowfall 0.4 0.1  
Since 1 September snowfall 0.4 0.1  
Snow Depth 0.00 in    
Sea Level Pressure  
Sea Level Pressure 29.97 in    
Wind  
Wind Speed 11 mph (SSW)    
Max Wind Speed 15 mph    
Max Gust Speed 20 mph    
Visibility 10 miles    
Events      
T = Trace of Precipitation, MM = Missing Value Source: NWS Daily Summary

Daily Weather History Graph

Daily Weather History Graph

Search for Another Location

Airport:

Trip Planner

Search our weather history database for the weather conditions in past years. The results will help you decide how hot, cold, wet, or windy it might be!

Date:

Astronomy

Nov. 15, 2013 Rise Set
Actual Time 6:41 AM CST 4:32 PM CST
Civil Twilight 6:11 AM CST 5:01 PM CST
Nautical Twilight 5:38 AM CST 5:35 PM CST
Astronomical Twilight 5:05 AM CST 6:08 PM CST
Moon 3:29 PM CST (11/15) 4:36 AM CST (11/15)
Length of Visible Light 10h 50m
Length of Day
9h 50m
Waxing Gibbous, 96% of the Moon is Illuminated
Nov 15
Waxing Gibbous
Nov 17
Full
Nov 25
Last Quarter
Dec 2
New
Dec 9
First Quarter

Hourly Weather History & Observations

Time (CST) Temp. Windchill Dew Point Humidity Pressure Visibility Wind Dir Wind Speed Gust Speed Precip Events Conditions
12:15 AM 37.0 °F 29.3 °F 27.5 °F 68% 29.98 in 10.0 mi SSW 11.5 mph - N/A   Clear
12:35 AM 37.4 °F 29.8 °F 27.5 °F 67% 29.98 in 10.0 mi SSW 11.5 mph - N/A   Clear
12:55 AM 37.6 °F 30.5 °F 27.5 °F 67% 29.98 in 10.0 mi SSW 10.4 mph - N/A   Clear
1:15 AM 37.4 °F 30.8 °F 27.5 °F 67% 29.98 in 10.0 mi SSW 9.2 mph - N/A   Clear
1:35 AM 36.9 °F 29.6 °F 28.0 °F 70% 29.98 in 10.0 mi SSW 10.4 mph - N/A   Clear
1:55 AM 37.4 °F 29.3 °F 28.2 °F 69% 29.98 in 10.0 mi SSW 12.7 mph - N/A   Clear
2:15 AM 36.7 °F 29.4 °F 28.0 °F 71% 29.98 in 10.0 mi SSW 10.4 mph 17.3 mph N/A   Clear
2:35 AM 36.1 °F 28.7 °F 28.2 °F 73% 29.97 in 10.0 mi SSW 10.4 mph - N/A   Clear
2:55 AM 36.7 °F 29.4 °F 28.2 °F 71% 29.97 in 10.0 mi SSW 10.4 mph - N/A   Clear
3:15 AM 37.2 °F 30.0 °F 28.2 °F 70% 29.97 in 10.0 mi SSW 10.4 mph - N/A   Clear
3:35 AM 36.5 °F 28.7 °F 28.0 °F 71% 29.96 in 10.0 mi SSW 11.5 mph - N/A   Clear
3:55 AM 36.3 °F 29.5 °F 28.0 °F 72% 29.97 in 10.0 mi SSW 9.2 mph - N/A   Clear
4:15 AM 36.5 °F 29.2 °F 28.0 °F 71% 29.96 in 10.0 mi SSW 10.4 mph - N/A   Clear
4:35 AM 35.8 °F 28.3 °F 28.0 °F 73% 29.97 in 10.0 mi SSW 10.4 mph - N/A   Clear
4:55 AM 35.4 °F 27.8 °F 27.9 °F 74% 29.96 in 10.0 mi SSW 10.4 mph - N/A   Scattered Clouds
5:15 AM 35.2 °F 27.6 °F 27.9 °F 74% 29.96 in 10.0 mi SSW 10.4 mph - N/A   Clear
5:35 AM 34.9 °F 27.7 °F 27.9 °F 76% 29.97 in 10.0 mi SSW 9.2 mph - N/A   Clear
5:55 AM 35.2 °F 27.6 °F 28.2 °F 76% 29.97 in 10.0 mi SSW 10.4 mph - N/A   Clear
6:15 AM 36.7 °F 29.4 °F 28.2 °F 71% 29.98 in 10.0 mi SSW 10.4 mph - N/A   Clear
6:35 AM 37.0 °F 29.8 °F 27.5 °F 68% 29.99 in 10.0 mi SSW 10.4 mph - N/A   Clear
6:55 AM 36.5 °F 29.7 °F 27.3 °F 69% 29.99 in 10.0 mi SSW 9.2 mph - N/A   Clear
7:15 AM 35.8 °F 28.8 °F 27.5 °F 72% 30.00 in 10.0 mi SSW 9.2 mph - N/A   Clear
7:35 AM 36.7 °F 29.9 °F 28.4 °F 72% 30.00 in 10.0 mi SSW 9.2 mph - N/A   Clear
7:55 AM 38.7 °F 31.8 °F 28.9 °F 68% 30.00 in 10.0 mi SSW 10.4 mph - N/A   Mostly Cloudy
8:15 AM 40.1 °F 32.7 °F 28.6 °F 63% 29.99 in 10.0 mi SSW 12.7 mph - N/A   Overcast
8:35 AM 40.8 °F 33.7 °F 28.4 °F 61% 29.99 in 10.0 mi SSW 12.7 mph 18.4 mph N/A   Overcast
8:55 AM 42.1 °F 34.5 °F 27.9 °F 57% 29.99 in 10.0 mi SW 15.0 mph - N/A   Mostly Cloudy
9:15 AM 43.7 °F 37.3 °F 28.0 °F 54% 29.99 in 10.0 mi SW 12.7 mph - N/A   Scattered Clouds
9:35 AM 44.8 °F 38.3 °F 27.7 °F 51% 29.99 in 10.0 mi SW 13.8 mph - N/A   Mostly Cloudy
9:55 AM 45.1 °F 40.3 °F 28.0 °F 51% 29.99 in 10.0 mi SW 9.2 mph - N/A   Overcast
10:15 AM 45.5 °F 39.9 °F 28.2 °F 51% 29.99 in 10.0 mi SW 11.5 mph - N/A   Overcast
10:35 AM 46.4 °F 40.7 °F 27.9 °F 48% 29.99 in 10.0 mi SW 12.7 mph - N/A   Overcast
10:55 AM 46.8 °F - 28.8 °F 50% 29.99 in 10.0 mi WSW 11.5 mph - N/A   Overcast
11:15 AM 47.3 °F - 29.3 °F 50% 29.98 in 10.0 mi SW 9.2 mph - N/A   Overcast
11:35 AM 47.3 °F - 29.3 °F 50% 29.97 in 10.0 mi SW 11.5 mph - N/A   Overcast
11:55 AM 47.3 °F - 30.0 °F 51% 29.97 in 10.0 mi SW 11.5 mph - N/A   Overcast
12:15 PM 47.7 °F - 30.7 °F 52% 29.96 in 10.0 mi SSW 12.7 mph 16.1 mph N/A   Overcast
12:35 PM 47.8 °F - 30.2 °F 50% 29.96 in 10.0 mi SSW 13.8 mph 18.4 mph N/A   Overcast
12:55 PM 47.7 °F - 30.9 °F 52% 29.97 in 10.0 mi SW 11.5 mph - N/A   Overcast
1:15 PM 47.5 °F - 30.9 °F 53% 29.96 in 10.0 mi SSW 13.8 mph - N/A   Overcast
1:35 PM 47.3 °F - 30.7 °F 53% 29.97 in 10.0 mi SW 13.8 mph 18.4 mph N/A   Overcast
1:55 PM 46.8 °F - 31.1 °F 55% 29.96 in 10.0 mi SW 15.0 mph - N/A   Overcast
2:15 PM 46.4 °F 40.1 °F 31.8 °F 57% 29.96 in 10.0 mi SW 15.0 mph 19.6 mph N/A   Overcast
2:35 PM 46.4 °F 40.1 °F 32.0 °F 57% 29.96 in 10.0 mi SW 15.0 mph - N/A   Overcast
2:55 PM 46.4 °F 41.5 °F 32.9 °F 59% 29.96 in 10.0 mi SSW 10.4 mph - N/A   Overcast
3:15 PM 45.5 °F 40.3 °F 33.3 °F 62% 29.95 in 10.0 mi SW 10.4 mph - N/A   Scattered Clouds
3:35 PM 45.7 °F 40.2 °F 34.0 °F 64% 29.96 in 10.0 mi SW 11.5 mph - N/A   Mostly Cloudy
3:55 PM 45.5 °F 40.3 °F 34.3 °F 65% 29.96 in 10.0 mi SW 10.4 mph - N/A   Overcast
4:15 PM 45.5 °F 39.6 °F 34.9 °F 66% 29.96 in 10.0 mi SW 12.7 mph - N/A   Overcast
4:35 PM 45.3 °F 40.6 °F 35.4 °F 68% 29.97 in 10.0 mi SSW 9.2 mph - N/A   Overcast
4:55 PM 44.6 °F 39.7 °F 35.6 °F 71% 29.97 in 10.0 mi SSW 9.2 mph - N/A   Overcast
5:15 PM 44.6 °F 39.2 °F 36.0 °F 72% 29.97 in 10.0 mi SSW 10.4 mph - N/A   Overcast
5:35 PM 44.6 °F 40.2 °F 36.1 °F 72% 29.98 in 10.0 mi SSW 8.1 mph - N/A   Overcast
5:55 PM 45.0 °F 40.6 °F 36.1 °F 71% 29.98 in 10.0 mi SSW 8.1 mph - N/A   Overcast
6:15 PM 44.6 °F 40.7 °F 36.5 °F 73% 29.99 in 10.0 mi SSW 6.9 mph - N/A   Overcast
6:35 PM 44.1 °F 40.1 °F 36.5 °F 75% 29.98 in 10.0 mi SSE 6.9 mph - N/A   Overcast
6:55 PM 44.1 °F 39.5 °F 36.5 °F 75% 29.97 in 10.0 mi South 8.1 mph - N/A   Overcast
7:15 PM 43.3 °F 38.1 °F 36.1 °F 76% 29.97 in 10.0 mi South 9.2 mph - N/A   Mostly Cloudy
7:35 PM 43.9 °F 38.3 °F 36.1 °F 74% 29.97 in 10.0 mi South 10.4 mph - N/A   Overcast
7:55 PM 42.8 °F 37.0 °F 35.4 °F 75% 29.97 in 10.0 mi South 10.4 mph - N/A   Scattered Clouds
8:15 PM 42.8 °F 37.0 °F 35.2 °F 75% 29.97 in 10.0 mi South 10.4 mph - N/A   Clear
8:35 PM 42.4 °F 36.1 °F 34.7 °F 74% 29.97 in 10.0 mi South 11.5 mph - N/A   Clear
8:55 PM 41.9 °F 36.9 °F 34.2 °F 74% 29.97 in 10.0 mi South 8.1 mph - N/A   Clear
9:15 PM 41.0 °F 35.2 °F 33.8 °F 76% 29.97 in 10.0 mi South 9.2 mph - N/A   Clear
9:35 PM 40.3 °F 35.5 °F 33.1 °F 75% 29.96 in 10.0 mi South 6.9 mph - N/A   Clear
9:55 PM 40.1 °F 33.6 °F 32.9 °F 75% 29.96 in 10.0 mi South 10.4 mph - N/A   Clear
10:15 PM 40.5 °F 33.6 °F 32.9 °F 74% 29.95 in 10.0 mi South 11.5 mph - N/A   Clear
10:35 PM 40.5 °F 34.1 °F 32.9 °F 74% 29.94 in 10.0 mi South 10.4 mph - N/A   Clear
10:55 PM 40.5 °F 34.1 °F 33.1 °F 75% 29.93 in 10.0 mi South 10.4 mph - N/A   Clear
11:15 PM 40.5 °F 33.2 °F 33.4 °F 76% 29.94 in 10.0 mi South 12.7 mph 17.3 mph N/A   Clear
11:35 PM 40.5 °F 33.2 °F 33.8 °F 77% 29.95 in 10.0 mi South 12.7 mph - N/A   Clear
11:55 PM 40.3 °F 33.9 °F 34.2 °F 79% 29.96 in 10.0 mi South 10.4 mph - N/A   Clear